Date,TemperatureHighF,TemperatureAvgF,TemperatureLowF,DewpointHighF,DewpointAvgF,DewpointLowF,HumidityHigh,HumidityAvg,HumidityLow,PressureMaxIn,PressureMinIn,WindSpeedMaxMPH,WindSpeedAvgMPH,GustSpeedMaxMPH,PrecipitationSumIn
2013-1-1,33.8,8.4,-5.4,18.1,17.6,17.2,23,22,22,23.78,23.69,8,1,8,0.00
2013-1-2,25.2,0.0,-17.3,18.1,17.6,17.2,23,23,22,23.81,23.78,6,0,6,0.00
2013-1-3,34.0,-2.7,-21.6,18.1,15.9,14.0,23,21,20,23.81,23.72,5,0,5,0.00
2013-1-4,34.7,0.2,-17.5,17.4,14.8,14.0,22,20,20,23.75,23.66,5,0,5,0.00
2013-1-5,33.6,-0.3,-17.7,15.6,14.7,14.0,20,20,20,23.78,23.66,0,0,0,0.00
2013-1-6,25.0,9.6,-6.3,18.1,15.5,14.2,23,21,20,23.66,23.46,6,0,6,0.00
2013-1-7,18.1,8.0,-7.2,18.1,15.8,14.2,23,21,20,23.52,23.40,7,1,7,0.00
2013-1-8,27.3,20.4,15.4,18.1,17.6,17.2,23,22,22,23.49,17.73,8,2,8,0.00
2013-1-9,39.6,28.0,20.8,18.1,17.5,17.2,23,22,22,17.73,17.73,8,1,8,0.00
2013-1-10,32.5,23.9,12.9,21.4,18.0,17.2,25,22,22,17.73,17.73,0,0,0,0.00
2013-1-11,13.6,6.4,-4.4,18.1,17.6,17.2,23,22,22,17.73,17.73,0,0,0,0.00
2013-1-12,15.3,-1.7,-20.4,18.1,16.4,14.0,23,22,20,17.73,17.73,0,0,0,0.00
2013-1-13,20.3,-11.4,-31.5,15.3,14.5,13.6,20,20,20,17.73,17.73,0,0,0,0.00
2013-1-14,5.4,-11.0,-30.1,15.1,14.4,13.6,20,20,20,17.73,17.73,0,0,0,0.00
2013-1-15,14.9,2.5,-8.0,15.4,14.7,14.0,20,20,20,17.73,17.73,0,0,0,0.00
2013-1-16,21.0,8.5,-2.2,15.6,14.9,14.4,20,20,20,17.73,17.73,0,0,0,0.00
2013-1-17,34.0,2.0,-18.9,15.8,14.8,14.0,20,20,20,17.73,17.73,0,0,0,0.00
2013-1-18,40.8,5.8,-12.6,15.8,14.9,14.0,20,20,20,17.73,17.73,0,0,0,0.00
2013-1-19,41.0,3.0,-17.7,15.6,14.8,14.0,20,20,20,17.73,17.73,0,0,0,0.00
2013-1-20,40.5,8.9,-10.7,15.8,15.0,14.2,20,20,20,17.73,17.73,0,0,0,0.00
2013-1-21,38.7,4.0,-13.4,15.8,14.9,14.0,20,20,20,17.73,17.73,0,0,0,0.00
2013-1-22,33.4,5.0,-17.7,15.8,14.9,14.0,20,20,20,17.73,17.73,0,0,0,0.00
2013-1-23,31.8,13.8,-1.5,15.6,15.0,14.4,20,20,20,17.73,17.73,0,0,0,0.00
2013-1-24,34.3,26.3,19.6,15.8,15.2,14.5,20,20,20,17.73,17.73,0,0,0,0.00
2013-1-25,39.6,32.0,27.7,18.1,17.2,14.9,23,22,20,17.73,17.73,9,0,9,0.00
2013-1-26,42.4,34.2,31.6,18.1,17.5,17.2,22,22,22,17.73,17.73,6,0,6,0.00
2013-1-27,34.3,28.2,20.3,18.1,17.5,17.2,23,22,22,17.73,17.73,9,0,9,0.00
2013-1-28,20.3,18.7,12.9,18.1,17.6,17.2,23,22,22,17.73,17.73,0,0,0,0.00
2013-1-29,21.2,12.9,10.2,18.1,17.7,17.2,23,22,22,17.73,17.73,0,0,0,0.00
2013-1-30,26.8,14.3,11.5,18.1,17.6,17.2,23,22,22,17.73,17.73,8,1,11,0.00
2013-1-31,32.7,26.1,21.7,18.1,17.5,17.2,23,22,22,17.73,17.73,13,3,13,0.00
2013-2-1,45.0,27.5,21.2,18.1,17.5,17.2,23,22,22,17.73,17.73,13,3,13,0.00
2013-2-2,34.0,25.7,13.1,18.1,17.5,17.2,23,22,22,17.73,17.73,9,2,9,0.00
2013-2-3,36.0,22.2,11.3,18.1,17.5,17.2,23,22,22,17.73,17.73,8,2,8,0.00
2013-2-4,30.0,23.7,20.3,18.1,17.5,17.2,23,22,22,17.73,17.73,9,2,9,0.00
2013-2-5,44.4,27.4,14.5,18.1,17.5,17.2,23,22,22,17.73,17.73,5,0,5,0.00
2013-2-6,36.9,17.3,2.8,18.1,17.5,17.2,23,22,22,17.73,17.73,9,2,9,0.00
2013-2-7,47.7,26.5,12.6,18.3,17.6,17.2,23,22,22,17.73,17.73,6,1,6,0.00
2013-2-8,16.2,12.9,10.0,18.0,17.5,17.2,22,22,22,17.73,17.73,4,0,4,0.00
2013-2-24,36.9,19.9,4.3,28.9,25.1,20.7,23,22,20,24.02,23.93,11,3,11,0.00
2013-2-25,28.6,18.0,10.2,27.7,23.7,20.5,23,21,20,23.99,23.81,10,2,11,0.00
2013-2-26,45.9,14.8,-3.3,27.1,22.7,20.7,23,21,20,24.05,23.78,15,2,15,0.00
2013-2-27,31.6,18.5,9.3,25.5,23.2,20.7,22,21,20,24.17,24.05,11,3,11,0.00
2013-2-28,36.3,21.3,13.6,27.9,23.3,20.7,22,21,20,24.22,24.08,7,2,8,0.00
2013-3-1,36.5,27.2,19.0,27.1,23.1,20.3,24,22,20,24.28,24.19,9,2,9,0.00
2013-3-2,41.0,31.5,27.5,32.2,25.8,20.1,23,22,21,24.25,23.93,6,1,6,0.00
2013-3-3,34.9,28.8,9.3,28.6,26.4,24.8,24,23,23,23.93,23.57,20,2,20,0.00
2013-3-4,37.8,14.4,-4.7,29.3,26.3,22.5,24,23,20,24.02,23.66,13,2,13,0.00
2013-3-5,45.7,17.2,-3.5,28.0,23.9,20.3,23,22,20,24.05,23.66,6,1,6,0.00
2013-3-6,36.9,23.9,5.5,28.4,24.9,20.7,23,22,20,23.72,23.52,9,0,12,0.00
2013-3-7,51.4,31.4,21.9,29.8,25.6,20.5,24,23,21,23.78,23.46,0,0,0,0.00
2013-3-8,50.7,31.0,13.3,28.6,24.8,22.8,24,24,22,23.63,23.25,6,1,6,0.00
2013-3-9,46.6,24.6,5.7,25.2,23.0,21.0,24,22,21,23.93,23.34,18,3,18,0.00
2013-3-10,47.7,20.9,-2.4,26.8,22.2,20.7,23,21,20,23.96,23.57,12,3,13,0.00
2013-3-11,47.7,30.0,14.9,29.5,24.1,19.2,24,22,21,23.81,23.46,22,5,22,0.00
2013-3-12,47.1,23.9,1.2,30.0,24.1,19.0,24,22,20,23.90,23.52,8,2,8,0.00
2013-3-13,50.7,37.4,30.4,28.6,23.9,18.3,24,24,22,23.81,23.60,8,1,8,0.00
2013-3-14,56.5,34.7,19.4,21.6,20.8,18.3,25,24,22,23.75,23.49,11,-27,11,0.00
2013-3-15,60.1,37.5,26.6,21.6,21.1,20.7,25,25,24,23.60,23.37,11,-20,11,0.00
2013-3-16,58.3,34.8,14.7,21.6,21.2,20.7,25,25,24,23.49,23.13,18,-26,18,0.00
2013-3-17,35.8,28.7,16.2,21.6,19.7,17.8,25,23,22,23.37,22.95,25,11,26,0.00
2013-3-18,39.7,22.4,8.1,18.9,18.3,17.6,22,22,22,23.43,23.22,16,4,16,0.00
2013-3-19,44.2,25.4,6.4,19.2,18.4,17.8,22,22,22,23.63,21.74,11,4,12,0.00
2013-3-20,43.9,28.6,10.8,19.0,18.4,17.8,22,22,22,23.52,20.12,13,2,13,0.00
2013-3-21,43.7,28.8,12.4,19.2,18.5,18.0,22,22,22,23.31,20.35,20,3,20,0.00
2013-3-22,41.4,18.9,0.7,19.2,18.3,15.8,22,22,20,23.31,20.15,16,2,16,0.00
2013-3-23,33.3,11.8,-4.4,18.9,16.8,15.3,22,21,19,23.49,20.44,17,4,17,0.00
2013-3-24,36.1,9.7,-13.2,16.3,15.8,15.1,20,20,19,23.55,20.24,14,3,14,0.00
2013-3-25,38.8,11.6,-14.6,16.3,15.8,15.1,20,20,19,23.52,17.73,13,3,13,0.00
2013-3-26,59.4,28.3,1.0,19.0,16.1,15.3,22,20,19,23.40,17.73,11,2,11,0.00
2013-3-27,55.2,35.2,20.7,19.0,18.1,15.3,22,22,20,23.46,20.21,10,1,10,0.00
2013-3-28,66.0,35.1,15.4,19.0,18.4,18.0,22,22,22,23.46,19.94,10,2,10,0.00
2013-3-29,65.7,38.0,22.5,19.0,18.6,17.6,22,22,22,23.49,17.73,13,2,15,0.00
2013-3-30,52.5,35.6,22.6,20.1,18.6,18.1,22,22,22,23.52,17.73,9,-27,10,0.00
2013-3-31,59.9,36.0,15.4,21.2,18.5,17.8,22,22,22,23.49,17.73,11,2,11,0.00
2013-4-1,63.3,38.3,17.8,21.0,18.7,18.0,22,22,21,23.31,17.73,12,-1,12,0.00
2013-4-2,62.1,37.8,19.8,21.4,18.6,18.0,22,22,21,23.40,17.73,11,2,11,0.00
2013-4-3,72.0,41.7,25.2,22.8,18.9,18.0,24,22,22,23.49,17.73,9,2,10,0.00
2013-4-4,65.1,40.3,26.4,21.6,18.8,18.0,25,22,22,17.73,17.73,15,2,16,0.00
2013-4-5,51.4,38.9,33.1,22.3,21.2,20.7,25,25,24,17.73,17.73,17,3,17,0.00
2013-4-6,48.0,37.2,28.9,21.9,21.4,20.7,25,25,24,17.73,17.73,9,1,11,0.00
2013-4-7,42.4,35.1,32.7,21.9,21.5,21.0,25,25,25,20.83,17.73,23,2,23,0.00
2013-4-8,34.5,29.3,21.4,21.7,20.4,17.2,25,24,22,17.73,17.73,26,7,26,0.00
2013-4-9,44.6,27.6,19.0,19.2,17.5,14.7,23,22,20,17.73,17.73,24,7,24,0.00
2013-4-10,57.7,30.8,7.3,19.2,18.4,17.8,22,22,22,17.73,17.73,12,3,13,0.00
2013-4-11,50.9,38.4,31.1,24.1,19.0,18.1,24,22,22,17.73,17.73,13,4,13,0.00
2013-4-12,60.6,37.3,22.6,23.4,18.6,18.0,24,22,22,17.73,17.73,11,3,11,0.00
2013-4-13,50.4,35.1,24.4,21.7,20.1,18.1,25,23,22,17.73,17.73,31,6,31,0.00
2013-4-14,49.5,29.2,18.1,21.4,18.4,17.8,22,22,21,17.73,17.73,20,6,20,0.00
2013-4-15,40.6,28.1,20.1,19.0,18.0,15.3,22,22,20,17.73,17.73,15,6,18,0.00
2013-4-16,36.3,24.5,16.9,16.7,15.7,14.9,20,20,19,17.73,17.73,22,8,22,0.00
2013-4-17,36.7,23.9,10.8,21.9,16.1,15.3,22,20,19,17.73,17.73,20,6,20,0.00
2013-4-18,42.4,24.8,5.0,21.4,16.0,15.3,21,20,19,17.73,17.73,13,3,13,0.00
2013-4-19,45.7,32.7,23.9,18.9,17.7,15.3,22,21,19,17.73,17.73,13,2,13,0.00
2013-4-20,61.7,38.4,27.3,19.2,18.6,18.1,22,22,22,17.73,17.73,21,2,24,0.00
2013-4-21,51.4,35.9,24.4,19.0,18.5,18.0,22,22,22,17.73,17.73,17,3,17,0.00
2013-4-22,39.2,28.4,18.5,20.1,18.6,15.8,22,22,20,17.73,17.73,20,5,20,0.00
2013-4-23,50.7,27.5,6.8,19.0,18.4,17.8,22,22,22,17.73,17.73,15,3,15,0.00
2013-4-24,57.2,33.3,17.8,19.2,18.4,18.0,22,22,22,17.73,17.73,15,3,15,0.00
2013-4-25,60.3,38.9,19.6,19.2,18.5,18.0,22,22,22,17.73,17.73,15,3,15,0.00
2013-4-26,62.8,43.5,23.2,20.3,19.1,18.0,22,22,22,17.73,17.73,14,3,14,0.00
2013-4-27,63.7,47.0,26.1,22.6,19.8,18.1,24,23,22,17.73,17.73,18,4,18,0.00
2013-4-28,64.8,46.1,34.9,21.7,19.6,18.3,24,23,22,17.73,17.73,11,2,11,0.00
2013-4-29,58.5,41.0,29.8,21.6,20.6,18.1,25,24,22,17.73,17.73,28,6,29,0.00
2013-4-30,51.4,34.6,22.8,21.6,19.2,18.1,25,23,22,17.73,17.73,15,4,15,0.00
2013-5-1,51.6,35.1,23.4,19.4,18.6,18.0,22,22,22,17.73,17.73,14,5,19,0.00
2013-5-2,54.5,36.0,16.0,19.0,18.5,18.0,22,22,22,17.73,17.73,13,3,15,0.00
2013-5-3,62.8,44.2,26.6,19.8,18.8,18.0,22,22,22,17.73,17.73,13,3,13,0.00
2013-5-4,56.7,46.0,38.5,21.9,20.5,18.0,25,24,22,17.73,17.73,19,7,23,0.00
2013-5-5,67.3,50.0,36.7,23.0,21.9,20.7,25,25,24,17.73,17.73,15,5,15,0.00
2013-5-6,73.9,51.3,30.2,23.7,22.3,20.7,25,24,24,17.73,17.73,11,3,13,0.00
2013-5-7,74.3,49.8,28.8,23.5,22.3,20.7,25,24,24,17.73,17.73,17,2,18,0.00
2013-5-8,74.7,55.0,33.1,24.1,22.9,21.2,25,25,24,17.73,17.73,14,3,15,0.00
2013-5-9,70.7,51.3,31.1,24.6,23.2,21.2,25,25,24,17.73,17.73,17,2,18,0.00
2013-5-10,73.4,54.0,32.0,24.6,23.0,21.2,25,25,24,17.73,17.73,16,3,17,0.00
2013-5-11,73.2,52.9,30.0,24.6,22.9,21.2,25,25,24,17.73,17.73,21,2,21,0.00
2013-5-12,75.9,58.1,36.1,27.7,24.3,21.9,25,24,24,17.73,17.73,15,2,15,0.00
2013-5-13,77.7,60.7,38.3,28.2,26.0,23.7,25,25,24,17.73,17.73,28,7,29,0.00
2013-5-14,72.5,56.3,35.6,28.0,26.5,25.0,25,24,24,17.73,17.73,21,5,22,0.00
2013-5-15,73.8,53.0,30.4,26.6,25.2,23.7,25,24,24,17.73,17.73,26,4,28,0.00
2013-5-16,64.8,53.1,41.4,26.1,24.6,23.4,25,25,25,17.73,17.73,20,4,20,0.00
2013-5-17,53.2,47.4,44.2,28.6,23.9,21.7,33,27,25,17.73,17.73,13,-7,13,0.00
2013-5-18,53.4,44.4,40.5,25.3,24.2,23.5,29,28,27,17.73,17.73,14,-8,14,0.00
2013-5-19,60.1,45.8,38.5,25.9,24.4,23.4,29,28,27,17.73,17.73,22,6,23,0.00
2013-5-20,66.6,51.5,40.3,35.8,27.7,24.4,31,29,27,17.73,17.73,19,6,19,0.00
2013-5-21,63.9,49.5,30.4,47.5,36.4,29.3,41,32,27,17.73,17.73,15,-1,15,0.00
2013-5-22,66.2,51.4,40.6,40.3,36.8,32.9,33,31,27,17.73,17.73,15,5,15,0.00
2013-5-23,65.7,47.3,34.3,50.7,37.6,31.1,48,32,26,17.73,17.73,19,4,22,0.00
2013-5-24,57.6,45.5,31.8,38.1,31.7,27.3,32,28,25,17.73,17.73,22,6,22,0.00
2013-5-25,63.3,49.4,29.1,28.0,26.5,25.0,27,26,25,17.73,17.73,17,4,17,0.00
2013-5-26,69.6,50.8,32.4,41.7,27.3,23.7,37,27,25,17.73,17.73,26,4,26,0.00
2013-5-27,58.5,46.6,39.7,41.9,37.8,35.4,35,33,31,17.73,17.73,19,4,19,0.00
2013-5-28,61.9,45.9,40.3,39.6,37.6,35.6,33,32,30,17.73,17.73,13,3,18,0.00
2013-5-29,55.6,45.6,41.0,43.0,37.2,34.9,39,34,33,17.73,17.73,15,3,15,0.00
2013-5-30,60.4,47.4,35.6,36.5,33.2,30.2,34,31,26,17.73,17.73,17,-6,17,0.00
2013-5-31,68.4,48.3,31.6,33.4,31.5,28.2,28,27,25,17.73,17.73,17,-45,18,0.00
2013-6-1,68.5,48.8,27.7,33.3,31.4,28.4,28,26,25,17.73,17.73,12,-26,13,0.00
2013-6-2,71.8,54.8,32.7,39.7,31.3,28.4,32,26,22,17.73,17.73,28,5,28,0.00
2013-6-3,67.5,50.1,33.1,32.4,30.1,28.4,27,25,24,17.73,17.73,17,6,17,0.00
2013-6-4,67.5,52.5,40.6,32.2,29.9,28.0,27,25,24,17.73,17.73,15,4,17,0.00
2013-6-5,57.2,38.7,29.7,32.7,28.6,26.2,26,25,23,17.73,17.73,8,1,8,0.00
2013-6-18,73.2,65.1,58.1,34.7,31.7,30.7,23,22,20,23.84,23.78,10,2,10,0.00
2013-6-19,69.1,55.1,42.3,32.4,30.6,28.8,26,24,23,23.93,23.72,31,6,31,0.00
2013-6-20,58.5,45.1,35.4,31.3,28.5,25.7,25,24,22,24.02,23.90,15,6,15,0.00
2013-6-21,63.0,48.0,30.4,29.7,26.8,24.1,25,24,23,23.99,23.90,17,3,18,0.00
2013-6-22,60.8,47.5,35.1,33.8,28.6,25.3,25,24,23,24.05,23.93,13,2,15,0.00
2013-6-23,70.3,53.4,31.8,32.2,30.2,27.9,26,24,23,24.02,23.81,13,3,15,0.00
2013-6-24,71.4,56.5,40.1,37.4,33.3,30.2,29,26,25,23.90,23.72,17,4,21,0.00
2013-6-25,63.9,54.1,48.7,40.5,37.2,33.6,33,31,27,24.02,23.87,15,5,17,0.00
2013-6-26,71.8,59.7,49.3,43.5,39.9,34.9,36,33,26,24.17,23.99,17,4,18,0.00
2013-6-27,83.1,63.8,41.2,42.8,39.4,34.5,35,31,24,24.25,24.17,12,2,13,0.00
2013-6-28,94.3,69.2,45.7,45.7,39.0,34.9,40,28,19,24.28,24.22,11,2,11,0.00
2013-6-29,91.6,68.7,48.7,43.7,40.7,37.9,34,28,23,24.22,24.22,26,4,29,0.00
2013-6-30,96.3,71.6,48.0,43.3,39.1,36.5,33,27,21,24.22,24.17,18,3,18,0.00
2013-7-1,96.3,73.9,51.3,43.9,42.0,38.8,33,30,25,24.25,24.19,13,3,13,0.00
2013-7-2,95.0,72.7,52.2,43.9,41.3,38.3,31,29,28,24.22,24.14,10,2,11,0.00
2013-7-3,97.3,73.9,53.1,43.0,40.0,37.9,30,28,25,24.19,24.05,13,2,15,0.00
2013-7-4,84.9,66.9,51.3,42.3,39.9,37.4,30,28,27,24.08,23.96,22,2,22,0.00
2013-7-5,77.5,62.8,50.9,41.7,39.9,38.1,32,30,29,24.02,23.90,20,3,24,0.00
2013-7-6,77.0,58.5,45.3,39.7,37.8,35.4,32,32,30,24.02,23.93,15,2,15,0.00
2013-7-7,80.1,63.8,43.5,41.2,37.8,35.1,33,32,31,24.05,23.93,19,3,19,0.00
2013-7-8,79.5,64.1,45.3,40.1,38.7,36.9,33,32,28,24.11,24.02,21,3,21,0.00
2013-7-9,82.8,65.1,44.2,39.6,36.9,34.5,32,30,27,24.19,24.11,12,2,12,0.00
2013-7-10,91.6,67.8,43.0,39.0,36.6,34.5,30,29,26,24.17,24.02,12,2,12,0.00
2013-7-11,75.2,61.5,50.2,39.0,36.7,35.2,30,29,28,24.05,23.99,16,3,17,0.00
2013-7-12,76.5,61.9,47.5,36.1,35.1,33.6,31,30,27,24.05,23.96,15,3,17,0.00
2013-7-13,79.2,63.4,42.4,37.6,35.2,33.1,31,29,27,24.11,24.02,15,4,17,0.00
2013-7-14,82.2,65.4,45.0,37.6,35.9,34.2,30,29,27,24.17,24.08,15,3,15,0.00
2013-7-15,84.9,65.7,45.1,37.8,35.3,33.6,30,28,26,24.11,24.02,14,3,17,0.00
2013-7-16,85.1,66.7,45.7,41.0,37.6,34.5,32,30,28,24.19,24.05,15,3,16,0.00
2013-7-17,84.0,69.6,56.3,43.3,40.8,38.7,33,32,32,24.19,24.14,19,4,20,0.00
2013-7-18,94.3,71.2,52.3,42.1,40.6,38.7,32,31,27,24.22,24.17,16,3,16,0.00
2013-7-19,95.5,69.0,44.2,41.5,37.6,34.3,32,28,24,24.19,24.08,17,2,17,0.00
2013-7-20,94.3,67.1,43.3,37.2,34.6,32.5,28,26,24,24.11,23.96,17,3,22,0.00
2013-7-21,84.9,65.8,42.3,35.6,33.4,32.4,27,25,23,24.02,23.96,13,3,13,0.00
2013-7-22,87.8,65.4,38.8,34.5,32.5,31.1,26,24,22,24.05,23.99,15,3,16,0.00
2013-7-23,96.1,66.9,39.9,33.3,31.7,30.4,25,24,22,24.17,24.05,13,2,16,0.00
2013-7-24,90.0,69.7,48.6,34.3,32.5,30.4,24,24,22,24.17,24.08,13,3,15,0.00
2013-7-25,92.7,65.1,43.3,34.3,32.3,30.4,25,24,23,24.19,24.08,15,2,15,0.00
2013-7-26,87.1,68.3,47.1,35.1,33.0,31.5,25,24,24,24.22,24.14,26,3,26,0.00
2013-7-27,72.5,61.0,45.7,35.1,32.8,31.8,26,25,25,24.14,23.99,18,2,18,0.00
2013-7-28,76.5,59.4,44.4,33.8,32.2,31.1,27,26,26,24.02,23.93,23,2,23,0.00
2013-7-29,77.7,59.3,41.4,34.3,32.4,30.7,28,28,27,24.08,23.96,26,3,26,0.00
2013-7-30,78.1,58.8,43.5,36.1,33.3,30.7,31,29,28,24.19,24.08,22,3,22,0.00
2013-7-31,85.1,63.4,41.2,38.1,34.2,31.5,32,30,28,24.19,24.11,17,4,17,0.00
2013-8-1,84.2,68.2,52.5,37.6,35.8,33.1,33,30,25,24.17,23.90,21,5,22,0.00
2013-8-2,73.8,60.1,45.9,36.0,33.5,30.9,30,27,24,24.08,23.93,17,4,18,0.00
2013-8-3,79.0,60.1,37.8,32.2,30.7,29.7,28,26,24,24.08,24.05,20,3,20,0.00
2013-8-4,83.3,62.4,37.4,32.0,30.6,28.8,27,26,24,24.11,24.05,16,3,17,0.00
2013-8-5,88.0,64.3,37.6,32.2,30.7,29.1,26,25,23,24.08,23.96,26,3,29,0.00
2013-8-6,86.2,65.0,43.2,32.4,30.9,29.3,26,25,23,24.08,23.99,20,3,20,0.00
2013-8-7,93.2,65.6,40.3,32.2,30.6,28.9,26,24,23,24.08,23.99,19,3,19,0.00
2013-8-8,92.3,62.7,40.3,32.2,30.3,28.4,25,24,23,24.14,23.99,16,3,18,0.00
2013-8-9,85.5,64.3,46.9,34.3,31.9,29.3,29,26,25,24.11,24.02,15,3,15,0.00
2013-8-10,82.4,67.9,47.8,33.6,32.5,31.5,27,26,24,24.11,24.11,17,4,18,0.00
2013-8-11,82.8,66.1,41.9,32.2,31.4,30.0,25,24,23,24.14,24.05,19,4,19,0.00
2013-8-12,86.2,63.1,40.3,31.5,30.5,29.5,25,24,23,24.14,24.08,24,3,24,0.00
2013-8-13,86.4,62.8,39.4,31.3,29.8,28.2,25,24,23,24.19,24.08,19,4,19,0.00
2013-8-14,92.8,65.4,40.6,32.4,30.2,28.4,25,24,24,24.17,24.08,14,2,14,0.00
2013-8-15,88.3,65.5,41.2,31.8,30.3,28.4,25,24,22,24.11,24.08,13,2,13,0.00
2013-8-16,89.4,66.2,39.6,31.6,29.9,28.4,25,23,22,24.11,24.08,18,3,19,0.00
2013-8-17,88.7,66.1,42.4,31.6,30.0,28.4,24,23,23,24.14,24.05,19,3,23,0.00
2013-8-18,88.9,69.5,51.6,33.3,30.8,28.8,24,23,22,24.14,24.05,15,3,19,0.00
2013-8-19,87.6,66.0,43.3,32.9,30.8,28.8,23,23,22,24.14,24.05,12,2,13,0.00
2013-8-20,87.1,68.1,44.4,33.3,31.2,28.8,24,23,22,24.11,24.02,20,3,20,0.00
2013-8-21,79.2,64.2,47.3,33.8,32.1,30.4,25,24,23,24.19,24.08,19,3,19,0.00
2013-8-22,82.0,66.9,46.0,35.1,32.7,30.6,25,25,24,24.17,24.02,15,3,17,0.00
2013-8-23,81.5,65.4,48.9,34.0,32.9,31.5,25,25,24,24.08,23.96,15,3,15,0.00
2013-8-24,77.9,62.8,51.6,33.3,32.1,30.2,26,26,25,24.11,23.99,23,4,24,0.00
2013-8-25,79.7,63.6,43.9,34.3,32.1,30.2,27,26,24,24.14,24.02,15,3,17,0.00
2013-8-26,75.7,64.8,52.3,35.6,33.5,31.3,27,26,24,24.17,24.05,15,3,15,0.00
2013-8-27,81.5,64.0,45.1,35.8,33.8,31.6,27,27,25,24.17,24.05,14,2,14,0.00
2013-8-28,77.4,62.5,49.6,39.4,35.5,31.8,32,29,25,24.17,24.08,17,3,22,0.00
2013-8-29,82.8,63.8,45.3,38.8,35.6,32.7,32,30,29,24.17,24.11,23,3,23,0.00
2013-8-30,84.6,65.0,44.2,36.9,34.7,33.1,30,28,26,24.19,24.08,19,3,21,0.00
2013-8-31,88.3,62.8,38.5,35.1,32.4,30.9,28,26,24,24.17,24.08,17,2,17,0.00
2013-9-1,89.1,63.4,37.9,33.1,31.1,29.3,27,25,24,24.11,24.02,11,1,11,0.00
2013-9-2,71.1,57.4,44.1,32.2,30.2,29.1,27,26,25,24.08,24.02,11,1,11,0.00
2013-9-3,83.1,62.8,45.9,38.7,32.9,29.1,32,29,27,24.22,24.08,15,2,15,0.00
2013-9-4,81.0,64.9,51.6,40.6,37.6,34.0,33,31,27,24.22,24.17,13,2,13,0.00
2013-9-5,81.9,61.8,45.9,38.8,36.9,34.3,33,32,31,24.19,24.08,16,2,16,0.00
2013-9-6,81.1,63.4,46.8,40.3,37.7,34.5,34,32,28,24.14,24.08,18,3,18,0.00
2013-9-7,77.2,60.0,47.8,38.7,37.5,35.6,33,33,32,24.17,24.11,24,2,24,0.00
2013-9-8,73.4,56.5,46.8,37.4,36.1,35.1,34,33,32,24.11,23.96,24,3,24,0.00
2013-9-9,76.3,56.1,43.2,35.2,34.5,33.4,35,34,33,24.05,23.96,10,1,11,0.00
2013-9-10,87.3,59.3,36.1,36.9,34.4,32.0,35,34,33,24.11,24.05,13,2,13,0.00
2013-9-11,83.5,63.5,45.9,35.8,33.1,30.6,34,30,26,24.19,24.11,17,4,17,0.00
2013-9-12,68.4,60.4,54.9,37.6,33.4,29.7,36,31,27,24.19,24.05,13,5,15,0.00
2013-9-13,76.8,59.0,40.5,36.7,35.1,33.8,35,34,33,24.08,23.87,13,2,13,0.00
2013-9-14,65.3,55.1,45.7,36.1,34.8,33.1,37,35,34,24.02,23.93,17,3,17,0.00
2013-9-15,78.6,60.6,49.5,38.5,36.5,34.7,39,38,36,24.08,24.02,17,3,17,0.00
2013-9-16,74.8,59.7,45.5,39.7,36.5,34.2,38,36,35,24.05,23.93,14,2,15,0.00
2013-9-17,69.1,53.6,46.4,37.9,36.1,34.5,40,37,36,23.96,23.72,17,2,20,0.00
2013-9-18,50.4,43.4,35.8,35.1,32.3,30.2,39,38,37,23.99,23.75,18,3,18,0.00
2013-9-19,61.5,43.6,29.5,38.5,32.0,28.6,39,37,33,24.11,23.99,11,2,11,0.00
2013-9-20,70.7,47.4,28.2,37.4,31.6,25.3,36,30,24,24.11,23.90,11,2,11,0.00
2013-9-21,72.1,52.0,31.6,35.1,31.6,29.1,34,29,25,23.93,23.69,17,3,18,0.00
2013-9-22,63.0,51.2,41.5,38.3,35.4,32.9,32,31,29,23.81,23.66,13,4,13,0.00
2013-9-23,59.4,46.7,37.4,40.1,37.2,34.7,34,32,29,24.02,23.81,15,3,17,0.00
2013-9-24,58.1,44.1,34.2,38.7,36.0,33.3,34,33,32,23.99,23.75,34,3,34,0.00
2013-9-25,44.6,39.9,35.6,39.2,36.1,32.5,35,33,32,23.75,23.63,16,3,16,0.00
2013-9-26,54.9,39.1,33.6,37.4,34.5,31.3,35,32,30,23.84,23.69,11,3,11,0.00
2013-9-27,59.2,41.7,34.2,37.0,33.3,30.7,34,32,30,23.99,23.78,13,4,13,0.00
2013-9-28,49.5,40.1,33.4,36.5,33.1,30.2,34,33,31,24.08,23.96,13,3,13,0.00
2013-9-29,49.1,46.0,42.4,36.9,33.8,31.5,35,32,28,23.96,23.81,22,7,22,0.00
2013-9-30,57.9,47.8,31.6,37.9,35.2,32.4,35,33,30,23.96,23.69,34,8,34,0.00
2013-10-1,57.2,41.2,28.2,40.6,35.9,31.3,35,33,31,23.99,23.90,20,3,20,0.00
2013-10-2,53.1,39.2,26.1,36.9,34.0,31.5,34,32,28,24.02,23.81,11,1,11,0.00
2013-10-3,40.5,33.8,30.2,39.2,33.8,29.1,33,30,27,23.99,23.75,15,1,16,0.00
2013-10-4,56.5,35.7,23.7,31.3,27.3,23.5,30,28,26,24.22,23.99,15,2,15,0.00
2013-10-5,51.3,32.4,14.2,26.6,26.1,25.5,29,29,28,24.28,24.22,11,1,11,0.00
2013-10-6,63.7,38.9,21.6,33.3,27.8,25.5,29,29,26,24.28,24.14,11,1,11,0.00
2013-10-7,62.8,43.7,22.6,34.7,29.5,24.6,28,26,23,24.14,23.84,15,2,15,0.00
2013-10-8,49.5,39.7,26.2,32.9,30.0,26.6,28,26,25,23.87,23.75,13,3,15,0.00
2013-10-9,59.2,35.1,19.8,31.1,27.7,23.9,27,25,23,23.87,23.81,17,3,18,0.00
2013-10-10,61.9,48.1,36.7,40.1,32.5,31.3,34,27,26,23.78,23.66,13,2,13,0.00
2013-10-11,59.9,38.7,24.4,33.8,30.2,26.1,28,26,25,23.99,23.78,17,2,17,0.00
2013-10-12,51.1,34.0,23.5,31.8,29.0,26.8,28,27,25,23.99,23.90,7,0,7,0.00
2013-10-13,40.6,36.0,31.3,36.7,30.8,26.1,29,26,25,23.99,23.90,11,2,15,0.00
2013-10-14,47.3,36.0,29.8,33.8,30.5,28.2,29,26,25,24.17,23.96,15,2,15,0.00
2013-10-15,54.5,35.2,20.7,33.8,29.6,25.3,27,25,23,24.19,24.08,13,2,13,0.00
2013-10-16,42.8,30.9,16.3,30.9,25.8,23.0,26,25,24,24.11,23.99,12,2,12,0.00
2013-10-17,52.5,35.8,28.9,24.1,23.4,23.0,26,26,26,24.05,23.96,17,2,17,0.00
2013-10-18,50.0,33.6,19.0,23.9,23.2,22.8,26,26,26,24.11,24.02,15,2,15,0.00
2013-10-19,51.3,33.1,19.2,23.9,23.3,22.8,26,26,26,24.08,23.93,10,1,10,0.00
2013-10-20,61.9,39.4,23.2,23.9,23.3,23.0,26,26,26,24.02,23.93,13,2,13,0.00
2013-10-21,58.6,36.8,19.6,24.1,23.4,22.8,26,26,26,24.11,24.02,13,2,13,0.00
2013-10-22,64.9,39.2,21.2,25.0,23.6,22.8,26,26,25,24.14,24.08,11,1,13,0.00
2013-10-23,65.3,40.8,20.3,25.0,23.7,22.8,26,26,26,24.08,24.02,9,1,9,0.00
2013-10-24,69.8,42.0,21.4,25.2,23.7,22.8,26,26,26,24.08,24.02,8,1,9,0.00
2013-10-25,64.8,41.5,21.7,25.0,23.6,22.8,26,26,25,24.17,24.08,9,1,10,0.00
2013-10-26,63.1,39.0,19.9,24.1,23.4,22.8,26,26,25,24.19,24.05,10,1,10,0.00
2013-10-27,58.5,38.9,19.6,24.1,23.4,21.9,26,26,25,24.05,23.69,13,1,13,0.00
2013-10-28,45.0,38.6,29.5,23.0,22.2,21.9,25,25,25,23.75,23.60,19,8,20,0.00
2013-10-29,34.3,31.1,26.1,22.8,22.3,21.9,25,25,25,23.78,23.78,8,2,11,0.00
2013-10-30,33.4,32.2,30.7,23.9,23.1,21.9,26,26,25,23.87,23.75,9,3,10,0.00
2013-10-31,32.7,30.3,26.8,23.9,23.2,23.0,26,26,26,23.96,23.87,11,3,11,0.00
2013-11-1,39.4,29.6,21.6,24.1,23.2,22.8,26,26,26,24.11,23.96,9,1,9,0.00
2013-11-2,52.5,37.6,21.9,23.9,23.3,22.8,26,26,26,24.08,23.60,20,3,20,0.00
2013-11-3,37.9,25.7,11.8,23.9,23.1,21.7,26,26,25,23.81,23.60,17,1,17,0.00
2013-11-4,42.6,21.8,10.2,23.0,22.3,21.7,25,25,25,23.90,23.78,0,0,0,0.00
2013-11-5,24.4,19.5,12.6,22.8,22.1,21.7,25,25,25,24.05,23.90,0,0,0,0.00
2013-11-6,38.5,28.0,21.6,22.8,22.3,21.7,25,25,25,24.17,24.02,8,1,8,0.00
2013-11-7,39.4,33.7,28.9,23.0,22.3,21.9,25,25,25,24.17,23.72,7,0,7,0.00
2013-11-8,43.7,32.6,24.1,22.8,22.3,21.9,25,25,25,23.96,23.72,22,3,22,0.00
2013-11-9,59.9,33.8,19.0,23.0,22.3,21.9,25,25,25,24.08,23.96,5,0,6,0.00
2013-11-10,60.4,32.4,17.4,22.8,22.3,21.7,25,25,25,24.11,24.05,5,0,5,0.00
2013-11-11,63.9,32.8,17.6,22.8,22.3,21.9,25,25,25,24.28,24.08,4,0,4,0.00
2013-11-12,68.0,31.0,12.9,22.8,22.3,21.7,25,25,25,24.31,24.19,6,0,6,0.00
2013-11-13,38.5,33.0,26.8,22.8,22.3,21.9,25,25,25,24.19,24.05,7,0,7,0.00
2013-11-14,37.2,29.8,22.1,23.0,22.3,21.9,25,25,25,24.05,23.66,9,1,12,0.00
2013-11-15,34.2,22.6,12.2,22.8,22.2,21.7,25,25,25,23.66,23.46,15,3,15,0.00
2013-11-16,29.3,23.5,11.1,22.8,22.2,21.7,25,25,25,23.55,23.31,23,8,23,0.00
2013-11-17,38.8,19.4,4.1,22.8,22.1,21.4,25,25,25,23.96,23.55,10,2,10,0.00
2013-11-18,45.0,31.7,24.3,22.8,22.3,21.9,25,25,25,23.99,23.78,8,1,9,0.00
2013-11-19,36.3,33.0,27.7,22.8,22.3,21.9,25,25,25,23.78,23.72,13,3,13,0.00
2013-11-20,35.1,30.6,18.5,22.8,22.2,21.4,25,25,25,23.87,23.66,15,4,15,0.00
2013-11-21,34.7,13.6,-3.8,23.0,21.6,20.7,25,25,24,24.25,23.87,13,2,13,0.00
2013-11-22,54.9,12.0,-11.9,21.7,20.4,18.3,25,23,22,24.28,24.22,6,-4,6,0.00
2013-11-23,57.7,20.3,-1.3,21.7,19.4,18.3,24,22,22,24.22,24.05,8,1,8,0.00
2013-11-24,47.5,17.0,-3.1,19.9,19.1,18.3,22,22,22,24.05,23.96,5,-3,5,0.00
2013-11-25,57.7,24.2,5.7,19.9,19.2,18.5,22,22,22,24.22,24.05,5,0,5,0.00
2013-11-26,51.8,19.4,1.8,19.9,19.1,18.3,22,22,22,24.11,24.08,5,-14,5,0.00
2013-11-27,69.1,24.9,5.5,19.9,19.2,18.5,22,22,22,24.08,23.96,6,-3,6,0.00
2013-11-28,45.7,21.7,5.9,19.9,19.2,18.5,22,22,22,24.02,23.96,5,0,5,0.00
2013-11-29,60.6,24.5,4.6,20.1,19.2,18.3,22,22,22,24.08,23.99,6,1,7,0.00
2013-11-30,46.2,27.2,11.3,21.6,19.3,18.7,24,22,22,24.08,24.05,6,0,6,0.00
2013-12-1,33.6,31.0,28.6,21.7,21.3,19.0,24,24,22,24.05,23.75,15,4,17,0.00
2013-12-2,36.7,32.1,22.1,22.8,21.4,20.8,25,24,24,23.75,23.43,26,4,30,0.00
2013-12-3,28.2,8.0,-8.9,21.6,20.0,18.3,24,23,22,23.66,23.46,0,0,0,0.00
2013-12-4,20.3,-6.5,-17.5,19.0,17.1,12.0,22,21,19,23.81,23.63,13,1,15,0.00
2013-12-5,33.8,-6.4,-25.1,16.3,15.8,15.3,20,20,19,23.78,23.75,5,0,5,0.00
2013-12-6,18.3,-6.7,-25.8,16.3,15.8,15.3,20,20,19,23.81,23.75,6,0,6,0.00
2013-12-7,11.7,1.1,-12.6,16.3,15.8,15.3,20,20,19,23.75,23.52,12,4,13,0.00
2013-12-8,7.9,-10.8,-26.9,16.3,15.8,15.3,20,20,19,23.90,23.63,10,1,10,0.00
2013-12-9,8.4,-9.5,-32.3,16.3,15.8,15.3,20,20,19,24.11,23.90,11,2,11,0.00
2013-12-10,13.8,4.4,-0.9,16.3,15.7,15.3,20,19,19,24.08,23.96,11,3,11,0.00
2013-12-11,20.7,11.7,3.6,16.3,15.7,15.3,20,19,19,24.19,24.08,6,1,6,0.00
2013-12-12,47.3,12.9,-5.1,16.3,15.7,15.3,20,19,19,24.19,23.93,3,0,4,0.00
2013-12-13,33.3,13.2,-1.7,16.3,15.7,15.3,20,19,19,24.14,23.87,7,1,7,0.00
2013-12-14,23.9,18.6,13.8,16.3,15.7,15.3,19,19,19,24.22,24.14,7,2,7,0.00
2013-12-15,28.2,18.8,2.5,16.2,15.7,15.3,19,19,19,24.22,24.14,6,1,6,0.00
2013-12-16,48.7,15.7,-0.6,16.3,15.7,15.3,20,19,19,24.22,24.11,4,0,4,0.00
2013-12-17,41.0,11.2,-4.7,16.3,15.7,15.3,20,19,19,24.22,23.96,4,0,4,0.00
2013-12-18,52.0,21.6,2.8,16.3,15.8,15.3,20,19,19,23.96,23.60,6,0,8,0.00
2013-12-19,40.3,17.5,-7.2,16.3,15.7,15.3,20,19,19,23.72,23.52,11,2,11,0.00
2013-12-20,13.6,3.6,-11.6,16.3,15.8,15.3,20,19,19,23.72,23.55,9,1,9,0.00
2013-12-21,26.2,16.7,10.9,16.3,15.7,15.3,20,19,19,23.84,23.55,9,2,9,0.00
2013-12-22,25.5,17.8,13.5,16.3,15.7,15.3,19,19,19,24.05,23.81,8,3,8,0.00
2013-12-23,28.9,21.9,13.5,16.3,15.7,15.3,19,19,19,24.08,23.90,11,1,11,0.00
2013-12-24,40.8,23.5,9.5,16.7,15.8,15.3,19,19,19,24.19,23.87,24,5,25,0.00
2013-12-25,28.4,18.2,4.1,16.3,15.7,15.3,20,19,19,24.28,24.19,9,2,9,0.00
2013-12-26,48.0,14.3,1.2,16.3,15.7,15.3,20,19,19,24.22,24.17,5,0,5,0.00
2013-12-27,51.4,13.5,-7.1,16.3,15.7,15.3,20,19,19,24.19,23.93,5,0,6,0.00
2013-12-28,52.7,22.0,7.7,16.5,15.7,15.3,20,19,19,24.05,23.90,14,1,15,0.00
2013-12-29,18.5,11.0,-3.8,16.3,15.6,15.3,20,19,19,24.08,23.96,4,0,5,0.00
2013-12-30,28.4,20.1,16.2,16.3,15.7,15.3,19,19,19,24.11,23.99,6,1,6,0.00
2013-12-31,27.3,21.9,13.1,16.2,15.7,15.3,19,19,19,23.99,23.87,6,0,6,0.00
2014-1-1,29.8,18.9,9.0,16.3,15.7,15.3,19,19,19,24.17,23.96,8,1,8,0.00
2014-1-2,30.2,22.9,17.4,16.2,15.7,15.3,19,19,19,24.14,23.93,6,1,7,0.00